Location: Newark
(41.1142°N, 73.9831°W)
Time: 05:50:07
(UTC+00:00)

N. Korean satellite - Visible Passes

Search period start: 23 September 2019 00:00
Search period end: 03 October 2019 00:00
Orbit: 455 x 509 km, 97.2° (Epoch: 22 September)

Date Brightness Start Highest point End Pass type
(mag) Time Alt. Az. Time Alt. Az. Time Alt. Az.
23 Sep 9.8 10:02:53 10° NE 10:05:09 16° E 10:07:25 10° SE visible
27 Sep 10.0 09:55:45 10° ENE 09:57:33 14° E 09:59:21 10° SE visible
28 Sep 10.4 23:13:20 10° WSW 23:14:41 12° W 23:16:03 10° WNW visible
30 Sep 9.5 10:12:32 10° NE 10:15:20 23° E 10:18:08 10° SSE visible
01 Oct 10.3 09:48:53 10° ENE 09:49:55 11° E 09:50:57 10° ESE visible
02 Oct 10.1 23:05:05 10° SW 23:07:03 14° W 23:09:02 10° WNW visible
